FW3849 Weather Reports


time (UTC)temp
C
wind
direction
speed
KPH
gust
KPH
rain 1hr
cm
rain 24hr
cm
rain mn
cm
humidity
%
barometer
mb
20260904191050 36 142 6.4 16.1 0.00 0.00 0.00 28 1008.9
20260904190548 36 150 4.8 14.5 0.00 0.00 0.00 29 1009.0
20260904190052 36 211 6.4 14.5 0.00 0.00 0.00 29 1009.1
20260904185545 35 88 3.2 8.0 0.00 0.00 0.00 30 1009.2
20260904185044 35 146 3.2 12.9 0.00 0.00 0.00 30 1009.3
20260904184550 35 127 4.8 9.7 0.00 0.00 0.00 30 1009.3
20260904184041 35 189 8.0 17.7 0.00 0.00 0.00 30 1009.3
20260904183032 35 145 6.4 20.9 0.00 0.00 0.00 31 1009.5
20260904182536 35 56 4.8 20.9 0.00 0.00 0.00 32 1009.6
20260904182032 35 236 6.4 16.1 0.00 0.00 0.00 32 1009.7
20260904181531 35 216 3.2 12.9 0.00 0.00 0.00 32 1009.8
20260904181031 35 229 6.4 12.9 0.00 0.00 0.00 32 1009.9
20260904180532 34 193 4.8 14.5 0.00 0.00 0.00 34 1009.9
20260904180031 35 206 6.4 14.5 0.00 0.00 0.00 34 1010.0
20260904175530 34 185 3.2 9.7 0.00 0.00 0.00 34 1010.0
20260904175028 34 183 3.2 11.3 0.00 0.00 0.00 34 1010.1
20260904174526 34 252 1.6 12.9 0.00 0.00 0.00 34 1010.2
20260904174025 33 256 1.6 9.7 0.00 0.00 0.00 34 1010.4
20260904173035 33 198 4.8 12.9 0.00 0.00 0.00 34 1010.5
20260904172529 33 297 6.4 12.9 0.00 0.00 0.00 35 1010.5
20260904172029 33 301 3.2 11.3 0.00 0.00 0.00 35 1010.6
20260904171538 33 215 4.8 11.3 0.00 0.00 0.00 35 1010.7
20260904171025 33 350 1.6 9.7 0.00 0.00 0.00 34 1010.6
20260904170527 33 334 4.8 9.7 0.00 0.00 0.00 35 1010.6
20260904170023 32 7 3.2 14.5 0.00 0.00 0.00 38 1010.7
20260904165522 32 238 4.8 14.5 0.00 0.00 0.00 39 1010.7
20260904165022 32 256 4.8 14.5 0.00 0.00 0.00 40 1010.8
20260904164524 32 249 4.8 12.9 0.00 0.00 0.00 39 1010.9
20260904164025 31 156 1.6 8.0 0.00 0.00 0.00 41 1010.8
20260904163021 31 257 4.8 12.9 0.00 0.00 0.00 43 1010.7
20260904162521 31 239 4.8 11.3 0.00 0.00 0.00 45 1010.6
20260904162024 30 211 4.8 12.9 0.00 0.00 0.00 46 1010.7
20260904161523 30 200 8.0 12.9 0.00 0.00 0.00 47 1010.8
20260904161019 30 257 8.0 16.1 0.00 0.00 0.00 47 1010.7
20260904160519 30 227 9.7 16.1 0.00 0.00 0.00 48 1010.7
20260904160020 30 252 9.7 14.5 0.00 0.00 0.00 49 1010.7
20260904155518 30 234 4.8 14.5 0.00 0.00 0.00 50 1010.7
20260904155017 29 231 8.0 16.1 0.00 0.00 0.00 50 1010.7
20260904154517 29 215 6.4 17.7 0.00 0.00 0.00 51 1010.5
20260904154017 29 196 6.4 17.7 0.00 0.00 0.00 52 1010.6
20260904153022 28 219 11.3 17.7 0.00 0.00 0.00 53 1010.6
20260904152514 28 231 9.7 16.1 0.00 0.00 0.00 53 1010.7
20260904152013 28 200 6.4 14.5 0.00 0.00 0.00 54 1010.6
20260904151525 28 198 9.7 16.1 0.00 0.00 0.00 55 1010.6
20260904151013 28 214 9.7 16.1 0.00 0.00 0.00 55 1010.6
20260904150513 28 229 8.0 14.5 0.00 0.00 0.00 55 1010.8
20260904150013 28 225 6.4 14.5 0.00 0.00 0.00 55 1010.8
20260904145513 27 223 9.7 14.5 0.00 0.00 0.00 56 1010.9
20260904145013 27 234 6.4 14.5 0.00 0.00 0.00 56 1010.9
20260904144512 27 175 8.0 14.5 0.00 0.00 0.00 56 1011.0
20260904144013 27 197 9.7 16.1 0.00 0.00 0.00 57 1011.0
20260904143013 27 206 11.3 17.7 0.00 0.00 0.00 57 1010.9
20260904142514 27 203 8.0 16.1 0.00 0.00 0.00 58 1010.9
20260904142013 27 206 9.7 16.1 0.00 0.00 0.00 58 1011.0
20260904141513 27 229 9.7 16.1 0.00 0.00 0.00 58 1010.8
20260904141017 27 209 9.7 19.3 0.00 0.00 0.00 58 1010.9
20260904140512 27 191 11.3 19.3 0.00 0.00 0.00 58 1010.7
20260904140012 27 193 12.9 17.7 0.00 0.00 0.00 58 1010.8
20260904135513 27 210 4.8 14.5 0.00 0.00 0.00 58 1011.0
20260904135011 27 187 8.0 14.5 0.00 0.00 0.00 58 1011.0
20260904134509 27 223 8.0 14.5 0.00 0.00 0.00 58 1010.8
20260904134009 27 244 6.4 14.5 0.00 0.00 0.00 58 1010.8
20260904133019 26 230 8.0 12.9 0.00 0.00 0.00 59 1010.6
20260904132517 26 177 3.2 11.3 0.00 0.00 0.00 59 1010.6
20260904132015 26 150 4.8 11.3 0.00 0.00 0.00 59 1010.4
20260904131515 26 200 4.8 9.7 0.00 0.00 0.00 59 1010.1
20260904131013 26 173 4.8 12.9 0.00 0.00 0.00 60 1010.0
20260904130512 26 196 8.0 12.9 0.00 0.00 0.00 60 1009.9
20260904130012 26 183 6.4 14.5 0.00 0.00 0.00 60 1009.9
20260904125512 26 190 8.0 14.5 0.00 0.00 0.00 60 1009.8
20260904125012 26 172 3.2 8.0 0.00 0.00 0.00 60 1009.8
20260904124511 26 187 3.2 6.4 0.00 0.00 0.00 60 1009.7
20260904124009 26 188 3.2 6.4 0.00 0.00 0.00 59 1009.6
20260904123001 26 189 3.2 8.0 0.00 0.00 0.00 59 1009.6
20260904122503 26 189 3.2 8.0 0.00 0.00 0.00 59 1009.5
20260904122101 26 190 3.2 8.0 0.00 0.00 0.00 59 1009.4
20260904121600 26 190 4.8 11.3 0.00 0.00 0.00 58 1009.4
20260904121059 26 161 3.2 11.3 0.00 0.00 0.00 58 1009.2
20260904120558 26 180 3.2 8.0 0.00 0.00 0.00 58 1009.3
20260904120058 26 180 3.2 8.0 0.00 0.00 0.00 57 1009.2
20260904115556 26 184 3.2 8.0 0.00 0.00 0.00 57 1009.2
20260904115156 26 183 3.2 9.7 0.00 0.00 0.00 57 1009.1
20260904114556 26 183 6.4 12.9 0.00 0.00 0.00 57 1009.2
20260904114055 26 194 4.8 12.9 0.00 0.00 0.00 57 1009.1
20260904113054 27 195 4.8 12.9 0.00 0.00 0.00 56 1009.1
20260904112552 27 199 6.4 12.9 0.00 0.00 0.00 56 1009.1
20260904112052 27 187 6.4 16.1 0.00 0.00 0.00 56 1009.2
20260904111552 27 206 11.3 20.9 0.00 0.00 0.00 55 1009.0
20260904111051 27 201 9.7 16.1 0.00 0.00 0.00 55 1009.0
20260904110552 27 202 11.3 19.3 0.00 0.00 0.00 55 1009.0
20260904110048 27 208 9.7 24.1 0.00 0.00 0.00 55 1009.0
20260904105547 27 198 14.5 24.1 0.00 0.00 0.00 55 1008.9
20260904105045 27 188 14.5 24.1 0.00 0.00 0.00 55 1009.0
20260904104545 27 206 11.3 19.3 0.00 0.00 0.00 55 1009.1
20260904104046 27 185 8.0 14.5 0.00 0.00 0.00 55 1009.1
20260904103049 27 187 4.8 8.0 0.00 0.00 0.00 54 1009.1
20260904102541 27 194 4.8 8.0 0.00 0.00 0.00 54 1009.2
20260904102039 27 194 4.8 12.9 0.00 0.00 0.00 53 1009.1
20260904101538 27 195 6.4 12.9 0.00 0.00 0.00 53 1009.1
20260904101037 27 182 3.2 16.1 0.00 0.00 0.00 53 1009.0
20260904100537 27 193 4.8 19.3 0.00 0.00 0.00 52 1008.9
20260904100037 28 184 9.7 20.9 0.00 0.00 0.00 53 1008.9
20260904095536 28 154 12.9 24.1 0.00 0.00 0.00 52 1008.8
20260904095036 28 210 16.1 24.1 0.00 0.00 0.00 52 1008.8
20260904094535 28 209 16.1 24.1 0.00 0.00 0.00 52 1008.7
20260904094034 28 207 12.9 19.3 0.00 0.00 0.00 51 1008.8
20260904093039 28 215 12.9 24.1 0.00 0.00 0.00 50 1008.7
20260904092536 28 204 14.5 25.7 0.00 0.00 0.00 50 1008.7
20260904092036 28 208 14.5 25.7 0.00 0.00 0.00 49 1008.6
20260904091539 28 199 12.9 27.4 0.00 0.00 0.00 49 1008.8
20260904091035 28 211 14.5 27.4 0.00 0.00 0.00 48 1008.8
20260904090535 28 210 12.9 24.1 0.00 0.00 0.00 48 1008.6
20260904090041 28 201 12.9 25.7 0.00 0.00 0.00 47 1008.6
20260904085533 28 209 14.5 24.1 0.00 0.00 0.00 47 1008.6
20260904085032 29 199 14.5 27.4 0.00 0.00 0.00 46 1008.6
20260904084532 29 183 14.5 27.4 0.00 0.00 0.00 45 1008.6
20260904084031 29 185 12.9 25.7 0.00 0.00 0.00 40 1008.6
20260904083032 30 210 11.3 25.7 0.00 0.00 0.00 39 1008.5
20260904082531 30 200 14.5 25.7 0.00 0.00 0.00 39 1008.6
20260904082030 30 183 17.7 30.6 0.00 0.00 0.00 39 1008.6
20260904081530 30 234 19.3 30.6 0.00 0.00 0.00 38 1008.6
20260904081029 30 212 14.5 24.1 0.00 0.00 0.00 37 1008.7
20260904080527 30 198 11.3 22.5 0.00 0.00 0.00 36 1008.6
20260904080038 30 214 14.5 22.5 0.00 0.00 0.00 35 1008.5
20260904075527 30 194 14.5 22.5 0.00 0.00 0.00 35 1008.5
20260904075125 30 206 16.1 22.5 0.00 0.00 0.00 34 1008.5
20260904074530 30 198 12.9 24.1 0.00 0.00 0.00 33 1008.5
20260904074024 31 204 12.9 27.4 0.00 0.00 0.00 33 1008.5
20260904073018 31 208 17.7 27.4 0.00 0.00 0.00 33 1008.6
20260904072518 31 206 12.9 24.1 0.00 0.00 0.00 32 1008.6
20260904072021 31 202 16.1 24.1 0.00 0.00 0.00 32 1008.6
20260904071516 31 201 14.5 27.4 0.00 0.00 0.00 31 1008.7
20260904071017 31 202 19.3 30.6 0.00 0.00 0.00 31 1008.8
20260904070515 31 193 17.7 30.6 0.00 0.00 0.00 31 1008.9
20260904070015 31 204 19.3 35.4 0.00 0.00 0.00 30 1008.9
20260904065514 31 198 19.3 37.0 0.00 0.00 0.00 30 1009.0
20260904065013 31 187 12.9 22.5 0.00 0.00 0.00 30 1009.0
20260904064512 31 202 11.3 22.5 0.00 0.00 0.00 30 1008.9
20260904064012 31 212 11.3 20.9 0.00 0.00 0.00 30 1008.8
20260904063014 31 203 11.3 20.9 0.00 0.00 0.00 30 1008.8
20260904062507 31 181 12.9 20.9 0.00 0.00 0.00 29 1008.8
20260904062010 31 200 12.9 19.3 0.00 0.00 0.00 29 1008.7
20260904061519 31 207 12.9 20.9 0.00 0.00 0.00 29 1008.7
20260904061008 31 202 14.5 20.9 0.00 0.00 0.00 29 1008.7
20260904060509 31 198 12.9 19.3 0.00 0.00 0.00 29 1008.8
20260904060009 31 181 9.7 17.7 0.00 0.00 0.00 29 1008.7
20260904055507 31 189 8.0 14.5 0.00 0.00 0.00 29 1008.7
20260904055006 31 189 9.7 14.5 0.00 0.00 0.00 28 1008.7
20260904054511 31 204 6.4 16.1 0.00 0.00 0.00 28 1008.7
20260904054006 31 196 4.8 12.9 0.00 0.00 0.00 28 1008.6
20260904053006 31 191 4.8 12.9 0.00 0.00 0.00 28 1008.6
20260904052506 31 191 4.8 12.9 0.00 0.00 0.00 28 1008.7
20260904052005 31 195 6.4 12.9 0.00 0.00 0.00 28 1008.7
20260904051513 31 185 6.4 12.9 0.00 0.00 0.00 28 1008.7
20260904051003 31 194 6.4 12.9 0.00 0.00 0.00 28 1008.6
20260904050503 31 199 6.4 14.5 0.00 0.00 0.00 28 1008.6
20260904050002 31 194 8.0 14.5 0.00 0.00 0.00 29 1008.5
20260904045502 31 191 4.8 9.7 0.00 0.00 0.00 28 1008.5
20260904045004 31 188 4.8 9.7 0.00 0.00 0.00 28 1008.4
20260904044501 31 188 4.8 9.7 0.00 0.00 0.00 28 1008.5
20260904044004 31 191 4.8 12.9 0.00 0.00 0.00 28 1008.3
20260904043005 31 187 4.8 8.0 0.00 0.00 0.00 28 1008.3
20260904042506 31 187 4.8 6.4 0.00 0.00 0.00 28 1008.3
20260904042003 31 187 3.2 8.0 0.00 0.00 0.00 27 1008.2
20260904041502 31 187 4.8 8.0 0.00 0.00 0.00 27 1008.2
20260904041002 31 187 3.2 8.0 0.00 0.00 0.00 26 1008.2
20260904040503 31 187 4.8 8.0 0.00 0.00 0.00 26 1008.1
20260904040001 32 187 3.2 8.0 0.00 0.00 0.00 25 1008.1
20260904035502 32 186 4.8 8.0 0.00 0.00 0.00 25 1008.0
20260904035004 32 189 4.8 8.0 0.00 0.00 0.00 25 1008.0
20260904034501 32 189 3.2 8.0 0.00 0.00 0.00 25 1008.0
20260904034100 32 189 4.8 8.0 0.00 0.00 0.00 24 1008.0
20260904033103 32 189 3.2 9.7 0.00 0.00 0.00 24 1008.0
20260904032600 32 189 4.8 9.7 0.00 0.00 0.00 24 1007.9
20260904032100 32 189 4.8 8.0 0.00 0.00 0.00 24 1007.8
20260904031600 32 189 3.2 8.0 0.00 0.00 0.00 23 1007.8
20260904031100 33 189 1.6 6.4 0.00 0.00 0.00 23 1007.7
20260904030600 33 189 3.2 6.4 0.00 0.00 0.00 23 1007.7
20260904030059 33 189 3.2 12.9 0.00 0.00 0.00 22 1007.6
20260904025559 33 189 4.8 12.9 0.00 0.00 0.00 22 1007.5
20260904025059 33 188 6.4 12.9 0.00 0.00 0.00 22 1007.3
20260904024600 33 188 3.2 8.0 0.00 0.00 0.00 21 1007.2
20260904024058 33 188 3.2 6.4 0.00 0.00 0.00 21 1007.2
20260904023059 33 188 3.2 6.4 0.00 0.00 0.00 20 1007.0
20260904022559 33 188 3.2 6.4 0.00 0.00 0.00 20 1006.9
20260904022058 33 188 3.2 9.7 0.00 0.00 0.00 20 1006.9
20260904021559 34 188 3.2 9.7 0.00 0.00 0.00 19 1006.9
20260904021058 34 188 4.8 8.0 0.00 0.00 0.00 19 1006.7
20260904020559 34 188 3.2 8.0 0.00 0.00 0.00 19 1006.7
20260904020058 35 188 4.8 8.0 0.00 0.00 0.00 18 1006.7
20260904015558 35 188 4.8 9.7 0.00 0.00 0.00 18 1006.5
20260904015058 35 187 4.8 9.7 0.00 0.00 0.00 18 1006.5
20260904014616 35 198 4.8 6.4 0.00 0.00 0.00 18 1006.3
20260904014058 35 198 3.2 6.4 0.00 0.00 0.00 18 1006.3
20260904013058 35 198 4.8 8.0 0.00 0.00 0.00 17 1006.1
20260904012558 35 191 3.2 6.4 0.00 0.00 0.00 17 1006.2
20260904012057 36 191 1.6 6.4 0.00 0.00 0.00 17 1006.2
20260904011607 36 191 3.2 6.4 0.00 0.00 0.00 17 1006.1
20260904011057 36 191 3.2 6.4 0.00 0.00 0.00 17 1006.1
20260904010557 36 191 3.2 6.4 0.00 0.00 0.00 16 1006.1
20260904010056 36 191 4.8 8.0 0.00 0.00 0.00 16 1006.1
20260904005557 37 191 4.8 8.0 0.00 0.00 0.00 16 1006.1
20260904005056 37 191 4.8 8.0 0.00 0.00 0.00 16 1006.1
20260904004556 37 191 4.8 12.9 0.00 0.00 0.00 15 1006.0
20260904004056 37 150 3.2 12.9 0.00 0.00 0.00 16 1006.0
20260904003101 37 150 6.4 12.9 0.00 0.00 0.00 16 1006.1
20260904002556 37 182 6.4 12.9 0.00 0.00 0.00 15 1005.9
20260904002055 37 181 8.0 16.1 0.00 0.00 0.00 16 1006.0
20260904001555 37 202 8.0 16.1 0.00 0.00 0.00 16 1006.0
20260904001055 38 200 8.0 16.1 0.00 0.00 0.00 16 1006.0
20260904000554 38 185 9.7 16.1 0.00 0.00 0.00 16 1005.9
20260904000058 38 213 8.0 14.5 0.00 0.00 0.00 15 1006.0
20260903235555 38 156 6.4 11.3 0.00 0.00 0.00 15 1005.9
20260903235054 38 190 3.2 12.9 0.00 0.00 0.00 16 1005.8
20260903234554 38 193 6.4 12.9 0.00 0.00 0.00 16 1005.8
20260903234054 37 192 4.8 16.1 0.00 0.00 0.00 16 1005.9
20260903233054 38 204 9.7 17.7 0.00 0.00 0.00 15 1005.8
20260903232553 38 145 4.8 22.5 0.00 0.00 0.00 16 1005.8
20260903232054 38 199 12.9 22.5 0.00 0.00 0.00 15 1005.8
20260903231604 38 188 9.7 22.5 0.00 0.00 0.00 15 1005.9
20260903231054 38 160 14.5 22.5 0.00 0.00 0.00 14 1005.9
20260903230557 38 181 11.3 22.5 0.00 0.00 0.00 14 1005.9
20260903230101 38 205 8.0 14.5 0.00 0.00 0.00 14 1005.8
20260903225553 38 145 6.4 17.7 0.00 0.00 0.00 13 1005.8
20260903225055 38 140 6.4 17.7 0.00 0.00 0.00 13 1005.7
20260903224552 38 179 4.8 19.3 0.00 0.00 0.00 13 1005.7
20260903224052 39 185 4.8 12.9 0.00 0.00 0.00 12 1005.7
20260903223105 39 122 3.2 17.7 0.00 0.00 0.00 11 1005.7
20260903222552 39 72 6.4 20.9 0.00 0.00 0.00 12 1005.8
20260903222052 39 158 8.0 20.9 0.00 0.00 0.00 12 1005.8
20260903221551 39 154 4.8 14.5 0.00 0.00 0.00 12 1005.8
20260903221053 39 228 6.4 12.9 0.00 0.00 0.00 14 1005.8
20260903220550 39 51 3.2 11.3 0.00 0.00 0.00 15 1005.8
20260903215550 38 193 8.0 19.3 0.00 0.00 0.00 15 1006.1
20260903215049 38 192 9.7 19.3 0.00 0.00 0.00 15 1006.1
20260903214552 39 196 9.7 16.1 0.00 0.00 0.00 15 1006.1
20260903214051 39 171 4.8 8.0 0.00 0.00 0.00 15 1006.2
20260903213047 38 244 3.2 16.1 0.00 0.00 0.00 16 1006.2
20260903212646 38 199 8.0 16.1 0.00 0.00 0.00 16 1006.4
20260903212046 38 160 4.8 14.5 0.00 0.00 0.00 16 1006.5
20260903211546 38 134 6.4 14.5 0.00 0.00 0.00 16 1006.5
20260903211048 38 236 9.7 14.5 0.00 0.00 0.00 16 1006.6
20260903210548 38 138 3.2 12.9 0.00 0.00 0.00 17 1006.6
20260903210044 38 214 3.2 12.9 0.00 0.00 0.00 17 1006.8
20260903205543 38 208 6.4 12.9 0.00 0.00 0.00 16 1006.8
20260903205042 38 161 4.8 12.9 0.00 0.00 0.00 16 1006.9
20260903204542 38 343 0.0 8.0 0.00 0.00 0.00 17 1007.0
20260903204041 38 277 3.2 9.7 0.00 0.00 0.00 17 1006.9
20260903203040 38 113 8.0 17.7 0.00 0.00 0.00 18 1007.1
20260903202540 38 210 9.7 17.7 0.00 0.00 0.00 18 1007.2
20260903202044 38 91 8.0 16.1 0.00 0.00 0.00 18 1007.2
20260903201538 38 107 8.0 16.1 0.00 0.00 0.00 19 1007.1
20260903201042 37 188 8.0 27.4 0.00 0.00 0.00 18 1007.2
20260903200536 37 191 11.3 27.4 0.00 0.00 0.00 19 1007.2
20260903200044 37 200 9.7 16.1 0.00 0.00 0.00 19 1007.4
20260903195535 37 198 6.4 14.5 0.00 0.00 0.00 20 1007.4
20260903195038 37 201 6.4 14.5 0.00 0.00 0.00 20 1007.5
20260903194544 37 153 6.4 14.5 0.00 0.00 0.00 21 1007.7
20260903194034 38 230 3.2 17.7 0.00 0.00 0.00 20 1007.7
20260903193034 37 122 4.8 16.1 0.00 0.00 0.00 20 1008.0
20260903192534 37 248 6.4 12.9 0.00 0.00 0.00 21 1008.0
20260903192033 37 78 1.6 9.7 0.00 0.00 0.00 21 1008.1
20260903191535 37 185 3.2 12.9 0.00 0.00 0.00 21 1008.1